Location: Unspecified
(47.5840°N, 122.3000°W)
Time: 21:42:43
(UTC+00:00)

IRIDIUM 103 - Pass Details

Date: 09 December 2025
Orbit: 776 x 779 km, 86.4° (Epoch: 21 January)

Event Time Altitude Azimuth Distance (km) Brightness Sun altitude
Rises 14:16:33 0° 183° (S) 3,249 7.8 -14.3°
Reaches altitude 10° 14:18:53 10° 184° (S) 2,327 7.0 -13.9°
Maximum altitude 14:24:06 86° 272° (W) 789 4.3 -13.1°
Drops below altitude 10° 14:29:22 10° 3° (N) 2,345 6.6 -12.2°
Sets 14:31:44 0° 4° (N) 3,277 7.4 -11.9°
